一网星座-0558星 (ONEWEB-0558)

导读 | 星芒AI

ONEWEB-0558 是 OneWeb 卫星通信系统中的一颗低轨通信卫星,旨在为全球提供高速互联网服务。该卫星属于 OneWeb 的星座计划,部署在约 1200 公里的近地轨道上,采用先进通信技术,支持偏远地区和航空、航海等移动场景的网络连接。该卫星由 OneWeb 与多家合作伙伴联合研发和发射,是实现全球数字包容性的重要组成部分。

基本信息
目录编号:
56059
目录名称:
ONEWEB-0558
国际标识:
2023-043P
轨道中心:
EARTH
卫星名称:
一网星座-0558星
卫星全名:
一网星座-0558星 (ONEWEB-0558)
卫星状态:
在轨 (已飞行996 天)
发射日期:
2023-03-26 UTC
国别 :
英国 (GB)
星等 :
--
轨道信息
数据来源 国际轨道数据 AOE轨道数据
星历时间 2025-12-15T16:24:20+0800
18小时前
查看轨道信息
2025-12-14T13:00:00+0800
1天前
查看轨道信息
半长轴 7555.902km 7555.876km
偏心率 0.0001864 0.0001826
轨道倾角 87.922° 87.924°
近地点辐角 60.971° 88.518°
升交点赤经 280.651° 280.878°
平近点角 299.161° 240.964°
近地点 1176.358km 1176.361km
远地点 1179.176km 1179.121km
周期 108.940分钟 108.940分钟
每日圈数 13.218232 13.218298
详细信息
平衡模式:
三轴稳定
覆盖范围:
全球
运营商:
一网卫星公司
运营商所在国:
英国
制造商(研发单位):
一网卫星公司
制造商所在国:
英国
使用方式:
暂无
卫星简介
OneWeb卫星网络由648颗重约125公斤的微型卫星组成,运行在1200公里的轨道上。 每颗卫星都能够提供至少每秒8千兆位的吞吐量,以使用其高吞吐量的Ku频段有效载荷为家庭和移动平台提供互联网接入。该卫星仍在工作。
2D轨道图
3D轨道图
轨道高度分析图
轨道倾角分析图
轨道综合分析图
查看轨道综合分析图